CZ-4C DEB, 43601

Orbit data source: Space-Track

CZ-4C DEB, 43601 is space debris in SSO originally from a launch on Tue, 09 Aug 2016 UTC launched from the Taiyaun Space Center, China (TSC). Debris objects in space refer to the collection of defunct objects orbiting the Earth. Examples of debris include non-operational satellites, rocket bodies, and fragments generated from explosions, collisions, or faulty payload assembly.

Loading next visibility...
Identifier
43601, 2016-049F
Orbit
SSO
Country
Flag of CNCN / PRC
Related business
Manufacturer
Unknown
Mission
Spacecraft
Bus & Motor
Unknown
Mass
Unknown
Launch date (UTC)
2016-08-09 (9 years ago)
Launch vehicle
Unknown
Launch site
Taiyaun Space Center, China (TSC)
Object type
Payload
Rocket body
Debris
Shape & HBR
Unknown shape, 0.1 m
Radar Cross Section
Small (<0.1 m²)

Expand to show TLE details & history
Last TLE update: 15 hours ago

TLE from 15 hours ago
0 CZ-4C DEB
1 43601U 16049F   25340.84441953  .00030536  00000-0  26599-2 0  9996
2 43601  98.3195 106.1372 0071964 108.0034 252.9044 14.94829963603846
Epoch: 2025-12-06T20:15Z
TLE epoch observation values (Epoch: 2025-12-06T20:15:57.847Z)
Latitude
-0.00005°
Longitude
86.27985°
Altitude
600.987 km
Speed
7.551 km/s
True Right ascension
07h 04m 32s
True Declination
0° 00' 00"
Sunlit
Object was in full shadow at epoch
Visualization orbit readout
Latitude
Unknown
Longitude
Unknown
Altitude
Unknown
Speed
Unknown
Apparent Right ascension
Unknown
Apparent Declination
Unknown
Sunlit
N/A
Visualization observer readout
Local Sidereal Time
08:55:11
Azimuth
Unknown
Elevation
Unknown
Doppler factor
Unknown
Orbital elements
Apogee altitude
630.014 km
Perigee altitude
529.868 km
Semi-major axis
6,958.078 km
Eccentricity
0.0072
Inclination
98.3195°
RAAN
106.1372°
Arg. of periapsis
108.0034°
True anomaly
252.11829°
Mean anomaly
252.9044°
Eccentric anomaly
252.51114°
Mean motion
3.73946 °/min
Orbital period
96.27 mins
BSTAR
0.0026599
Loading maneuver chart data...
Computing Atmospheric mass density...
Loading historical data...
Loading historical data...
Loading historical data...
Loading historical data...
Loading historical data...
Loading historical data...
Loading historical data...
Other satellites on launch #49 in the year 2016 (2016-08-09 UTC)

Documentation

Showing up to 5 results
|